Epoch 2007 Aug. 8.0 TT = JDT 2454320.5
T 2007 Aug. 23.87738 TT MPC
q 1.8390170 (2000.0) P Q
n 0.07449956 Peri. 163.14832 +0.90984005 +0.41426614
a 5.5937139 Node 172.24912 -0.39826734 +0.88800310
e 0.6712351 Incl. 10.23841 -0.11650839 +0.19958473
P 13.23